Tracking 30923 objects as of 1-Jul-2025
HD Live streaming from Space Station
objects crossing your sky now

STARLINK-6348

Track STARLINK-6348 now!
10-day predictions
STARLINK-6348 is classified as:


NORAD ID: 57360
Int'l Code: 2023-099AJ
Perigee: 565.4 km
Apogee: 567.0 km
Inclination: 43.0 °
Period: 95.8 minutes
Semi major axis: 6937 km
RCS: Unknown
Launch date: July 16, 2023
Source: United States (US)
Launch site: AIR FORCE EASTERN TEST RANGE (AFETR)
Your satellite tracking list
METEOR 2-5 DEB
Track 1 satellite(s)




NASA's NSSDC Master Catalog

Two Line Element Set (TLE):
1 57360U 23099AJ  25181.66208413 -.00000591  00000-0 -28681-4 0  9997
2 57360  43.0028 165.5132 0001193 311.6541  48.4199 15.02540552109091
Source of the keplerian elements: AFSPC